Погода в Матвеевом Кургане

Россия / Ростовская область     47°34′06″N   38°51′56″E
темп.,
°C
ветер,
м/с
пор.,
м/с
влажн.,
%
обл.,
%
осадки,
мм/ч
давл.,
гПа
погр.,
м
13 апреля, вт
вт1300:00+10з2287100 0.0 102242
03:00+9зсз2389100 0.4 1022106
06:00+9зсз2393100 0.1 1021106
09:00+9юз2493100 0.3 1022189
12:00+13юз3370100 0.0 1022871
15:00+14ююз446656 0.1 10221050
18:00+12ю3380100 0.1 1022295
21:00+11зюз1186100 0.1 102229
14 апреля, ср
ср1400:00+9сз228998 0.0 102119
03:00+9с2389100 0.0 102046
06:00+9сз1195100 2.9 101831
09:00+10сз1191100 6.8 1019226
12:00+15з226599 0.1 1017887
15:00+16з2259100 0.4 10161066
18:00+15зюз226664 0.1 1016405
21:00+10юз36842 0.1 1017124
15 апреля, чт
чт1500:00+9зюз3582100 0.0 1016110
03:00+8зюз2285100 0.0 101635
06:00+8зюз1186100 0.0 101610
09:00+12ю23705 0.0 1017426
12:00+15ю56606 0.0 10161252
15:00+16ююз565395 0.0 10161239
18:00+13юз4774100 0.0 1016495
21:00+10ююз24895 0.0 1017118
16 апреля, пт
пт1600:00+9ююз359518 0.0 1016109
03:00+8юз249156 0.0 1016109
06:00+6з23925 0.0 101780
09:00+10з2367100 0.0 1018576
12:00+13юз3458100 0.0 10171302
15:00+12ююз566098 0.0 1018911
18:00+11юз446623 0.0 1018852
21:00+8ююз358098 0.0 1019103
17 апреля, сб
сб1700:00+8зюз3776100 0.1 1019365
03:00+6зюз368523 0.1 1019146
06:00+6зюз35925 0.0 1020106
09:00+11зюз34702 0.0 1020677
12:00+14зюз34445 0.0 10211809
15:00+14ююз544397 0.0 10201784
18:00+13ююз445013 0.0 1020456
21:00+9юз33635 0.0 102163